TimeCST,TemperatureF,Dew PointF,Humidity,Sea Level PressureIn,VisibilityMPH,Wind Direction,Wind SpeedMPH,Gust SpeedMPH,PrecipitationIn,Events,Conditions,WindDirDegrees,DateUTC
12:52 AM,8.1,3.9,83,30.21,9.0,Calm,Calm,-,N/A,,Clear,0,2013-12-13 06:52:00
1:52 AM,8.1,3.0,80,30.19,9.0,Calm,Calm,-,N/A,,Clear,0,2013-12-13 07:52:00
2:52 AM,6.1,1.9,83,30.18,10.0,Calm,Calm,-,N/A,,Clear,0,2013-12-13 08:52:00
3:52 AM,6.1,1.9,83,30.16,10.0,Calm,Calm,-,N/A,,Clear,0,2013-12-13 09:52:00
4:52 AM,9.0,5.0,84,30.15,9.0,Calm,Calm,-,N/A,,Clear,0,2013-12-13 10:52:00
5:52 AM,8.1,3.9,83,30.15,10.0,Calm,Calm,-,N/A,,Clear,0,2013-12-13 11:52:00
6:52 AM,8.1,3.9,83,30.15,9.0,Calm,Calm,-,N/A,,Clear,0,2013-12-13 12:52:00
7:52 AM,8.1,3.9,83,30.16,8.0,East,4.6,-,N/A,,Clear,100,2013-12-13 13:52:00
8:52 AM,15.1,10.0,80,30.14,8.0,East,5.8,-,N/A,,Clear,80,2013-12-13 14:52:00
9:52 AM,19.9,12.9,74,30.15,8.0,East,4.6,-,N/A,,Clear,90,2013-12-13 15:52:00
10:52 AM,27.0,17.1,66,30.12,8.0,NE,4.6,-,N/A,,Clear,50,2013-12-13 16:52:00
11:52 AM,30.0,19.9,66,30.09,8.0,NE,8.1,-,N/A,,Clear,50,2013-12-13 17:52:00
12:52 PM,28.9,19.9,69,30.07,8.0,East,8.1,-,N/A,,Clear,80,2013-12-13 18:52:00
1:52 PM,30.0,21.9,72,30.05,8.0,East,9.2,-,N/A,,Partly Cloudy,80,2013-12-13 19:52:00
2:52 PM,30.0,21.9,72,30.05,7.0,ENE,8.1,-,N/A,,Overcast,60,2013-12-13 20:52:00
3:52 PM,27.0,19.9,75,30.06,6.0,ENE,11.5,-,N/A,,Haze,60,2013-12-13 21:52:00
4:52 PM,27.0,19.9,75,30.07,8.0,ENE,9.2,-,N/A,,Overcast,70,2013-12-13 22:52:00
5:52 PM,27.0,19.9,75,30.08,8.0,East,11.5,-,N/A,,Overcast,80,2013-12-13 23:52:00
6:16 PM,26.6,21.2,80,30.05,4.0,East,10.4,-,N/A,,Haze,80,2013-12-14 00:16:00
6:20 PM,26.6,21.2,80,30.05,2.0,East,11.5,-,N/A,,Overcast,80,2013-12-14 00:20:00
6:29 PM,26.6,21.2,80,30.05,3.0,ENE,12.7,-,N/A,,Overcast,70,2013-12-14 00:29:00
6:42 PM,26.6,23.0,86,30.05,2.5,ENE,11.5,-,N/A,,Overcast,70,2013-12-14 00:42:00
6:52 PM,26.1,23.0,88,30.08,2.5,ENE,13.8,-,N/A,,Overcast,70,2013-12-14 00:52:00
7:03 PM,26.6,23.0,86,30.05,2.5,East,11.5,-,N/A,,Overcast,80,2013-12-14 01:03:00
7:23 PM,26.6,23.0,86,30.06,1.8,ENE,12.7,-,0.00,Snow,Light Snow,70,2013-12-14 01:23:00
7:47 PM,26.6,23.0,86,30.05,1.8,East,11.5,-,0.00,Snow,Light Snow,80,2013-12-14 01:47:00
7:52 PM,26.1,23.0,88,30.09,1.8,ENE,11.5,-,0.00,Snow,Light Snow,70,2013-12-14 01:52:00
8:00 PM,26.6,23.0,86,30.05,1.8,East,11.5,-,0.00,Snow,Light Snow,80,2013-12-14 02:00:00
8:12 PM,26.6,23.0,86,30.05,1.0,East,11.5,-,0.01,Snow,Light Snow,80,2013-12-14 02:12:00
8:48 PM,26.6,24.8,93,30.05,1.5,ENE,9.2,-,0.02,Snow,Light Snow,70,2013-12-14 02:48:00
8:52 PM,26.1,24.1,92,30.07,1.8,ENE,9.2,-,0.02,Snow,Light Snow,60,2013-12-14 02:52:00
9:03 PM,26.6,24.8,93,30.04,2.0,ENE,9.2,-,0.00,Snow,Light Snow,70,2013-12-14 03:03:00
9:17 PM,26.6,24.8,93,30.05,1.5,ENE,8.1,-,0.00,Snow,Light Snow,60,2013-12-14 03:17:00
9:23 PM,26.6,24.8,93,30.05,1.2,ENE,10.4,-,0.00,Snow,Light Snow,60,2013-12-14 03:23:00
9:32 PM,26.6,24.8,93,30.05,1.5,ENE,10.4,-,0.00,Snow,Light Snow,60,2013-12-14 03:32:00
9:39 PM,26.6,24.8,93,30.05,1.2,ENE,10.4,-,0.01,Snow,Light Snow,60,2013-12-14 03:39:00
9:52 PM,27.0,24.1,89,30.08,1.2,ENE,10.4,-,0.01,Snow,Light Snow,70,2013-12-14 03:52:00
10:00 PM,26.6,24.8,93,30.04,1.8,ENE,11.5,-,0.00,Snow,Light Snow,60,2013-12-14 04:00:00
10:15 PM,26.6,24.8,93,30.05,1.8,ENE,11.5,-,0.00,Snow,Light Snow,60,2013-12-14 04:15:00
10:22 PM,26.6,24.8,93,30.05,2.0,NE,11.5,-,0.00,Snow,Light Snow,50,2013-12-14 04:22:00
10:36 PM,26.6,24.8,93,30.04,2.0,ENE,12.7,-,0.00,Snow,Light Snow,60,2013-12-14 04:36:00
10:44 PM,26.6,24.8,93,30.04,1.2,ENE,12.7,-,0.00,Snow,Light Snow,60,2013-12-14 04:44:00
10:52 PM,27.0,24.1,89,30.07,1.5,NE,12.7,-,0.01,Snow,Light Snow,50,2013-12-14 04:52:00
11:05 PM,26.6,24.8,93,30.05,1.5,ENE,11.5,-,0.00,Snow,Light Snow,60,2013-12-14 05:05:00
11:20 PM,26.6,24.8,93,30.05,1.2,ENE,10.4,-,0.00,Snow,Light Snow,60,2013-12-14 05:20:00
11:52 PM,27.0,24.1,89,30.06,1.2,ENE,10.4,-,0.01,Snow,Light Snow,60,2013-12-14 05:52:00